GW5916 Weather Reports


time (UTC)temp
F
wind
direction
speed
knots
gust
knots
rain 1hr
in
rain 24hr
in
rain mn
in
humidity
%
barometer
mb
20260504034908 57 198 1.7 5.2 0.00 0.00 0.00 45 1053.2
20260504034405 57 223 1.7 1.7 0.00 0.00 0.00 47 1053.5
20260504033902 57 230 1.7 2.6 0.00 0.00 0.00 46 1053.4
20260504033400 57 249 0.9 3.5 0.00 0.00 0.00 46 1053.6
20260504032856 57 217 1.7 2.6 0.00 0.00 0.00 46 1053.6
20260504032354 57 249 1.7 1.7 0.00 0.00 0.00 45 1053.6
20260504031850 57 229 0.9 2.6 0.00 0.00 0.00 45 1053.8
20260504031347 58 225 0.0 1.7 0.00 0.00 0.00 44 1053.8
20260504030844 58 211 1.7 1.7 0.00 0.00 0.00 43 1053.8
20260504030341 58 225 0.9 1.7 0.00 0.00 0.00 43 1054.2
20260504025837 58 346 0.9 1.7 0.00 0.00 0.00 43 1054.3
20260504025334 58 235 0.0 2.6 0.00 0.00 0.00 42 1054.2
20260504024831 58 315 0.0 1.7 0.00 0.00 0.00 42 1054.1
20260504024327 58 306 0.0 1.7 0.00 0.00 0.00 42 1053.9
20260504023824 58 272 0.0 1.7 0.00 0.00 0.00 43 1053.9
20260504023321 58 293 0.0 0.0 0.00 0.00 0.00 43 1054.1
20260504022816 59 60 0.0 1.7 0.00 0.00 0.00 43 1053.8
20260504022314 58 36 0.0 1.7 0.00 0.00 0.00 45 1054.0
20260504021810 58 243 0.9 0.9 0.00 0.00 0.00 45 1053.9
20260504021308 58 326 0.0 0.9 0.00 0.00 0.00 45 1053.9
20260504020804 58 310 0.0 0.9 0.00 0.00 0.00 43 1053.9
20260504020301 58 322 0.0 0.0 0.00 0.00 0.00 44 1054.0
20260504015757 59 217 0.0 0.0 0.00 0.00 0.00 42 1053.8
20260504015253 60 217 0.0 0.9 0.00 0.00 0.00 40 1053.6
20260504014749 60 336 0.0 1.7 0.00 0.00 0.00 40 1053.8
20260504014246 60 269 0.0 0.0 0.00 0.00 0.00 40 1053.7
20260504013744 60 269 0.0 1.7 0.00 0.00 0.00 39 1053.7
20260504013241 61 282 0.9 1.7 0.00 0.00 0.00 39 1053.8
20260504012737 61 224 0.0 0.9 0.00 0.00 0.00 39 1053.7
20260504012235 62 222 0.0 0.9 0.00 0.00 0.00 38 1053.8
20260504011732 62 356 0.0 1.7 0.00 0.00 0.00 37 1053.8
20260504011229 63 9 0.9 1.7 0.00 0.00 0.00 36 1053.6
20260504010725 63 266 0.0 0.9 0.00 0.00 0.00 36 1053.6
20260504010221 64 47 0.0 1.7 0.00 0.00 0.00 35 1053.7
20260504005718 65 108 0.9 2.6 0.00 0.00 0.00 35 1053.8
20260504005215 65 290 1.7 1.7 0.00 0.00 0.00 34 1053.7
20260504004712 66 330 0.0 3.5 0.00 0.00 0.00 33 1053.8
20260504004209 67 186 1.7 4.3 0.00 0.00 0.00 32 1053.8
20260504003706 68 313 2.6 2.6 0.00 0.00 0.00 31 1053.7
20260504003203 68 349 1.7 2.6 0.00 0.00 0.00 31 1053.8
20260504002659 69 293 2.6 4.3 0.00 0.00 0.00 31 1053.7
20260504002157 69 45 1.7 5.2 0.00 0.00 0.00 30 1053.9
20260504001655 69 69 2.6 5.2 0.00 0.00 0.00 29 1053.9
20260504001150 69 334 1.7 7.0 0.00 0.00 0.00 29 1053.7
20260504000648 70 317 2.6 3.5 0.00 0.00 0.00 28 1054.0
20260504000145 70 286 2.6 7.0 0.00 0.00 0.00 28 1053.8
20260503235643 70 271 2.6 7.0 0.00 0.00 0.00 29 1053.8
20260503235139 70 345 2.6 4.3 0.00 0.00 0.00 30 1053.8
20260503234638 70 337 1.7 5.2 0.00 0.00 0.00 30 1053.8
20260503234135 71 250 6.1 6.1 0.00 0.00 0.00 29 1053.9
20260503233632 70 318 2.6 8.7 0.00 0.00 0.00 29 1053.7
20260503233127 70 337 2.6 8.7 0.00 0.00 0.00 29 1053.7
20260503232625 71 224 1.7 4.3 0.00 0.00 0.00 30 1053.9
20260503232122 71 348 2.6 9.6 0.00 0.00 0.00 30 1053.9
20260503231620 71 188 1.7 8.7 0.00 0.00 0.00 29 1054.0
20260503231116 71 280 4.3 6.1 0.00 0.00 0.00 30 1053.9
20260503230613 71 311 5.2 9.6 0.00 0.00 0.00 30 1053.8
20260503230110 71 301 6.1 7.8 0.00 0.00 0.00 29 1053.8
20260503225608 71 313 2.6 7.8 0.00 0.00 0.00 28 1053.8
20260503225107 71 294 1.7 7.0 0.00 0.00 0.00 27 1053.9
20260503224605 71 340 2.6 7.8 0.00 0.00 0.00 27 1054.0
20260503224103 71 354 3.5 6.1 0.00 0.00 0.00 27 1053.8
20260503223601 71 345 1.7 8.7 0.00 0.00 0.00 28 1053.8
20260503223056 71 336 4.3 8.7 0.00 0.00 0.00 28 1053.9
20260503222554 71 181 1.7 5.2 0.00 0.00 0.00 28 1053.7
20260503222052 71 291 3.5 9.6 0.00 0.00 0.00 28 1053.8
20260503221550 72 337 5.2 7.0 0.00 0.00 0.00 29 1053.7
20260503221047 71 353 2.6 11.3 0.00 0.00 0.00 30 1053.8
20260503220543 71 359 2.6 6.1 0.00 0.00 0.00 30 1053.7
20260503220040 71 331 5.2 8.7 0.00 0.00 0.00 29 1053.6
20260503215537 71 321 2.6 5.2 0.00 0.00 0.00 29 1053.6
20260503215034 71 274 5.2 9.6 0.00 0.00 0.00 29 1053.7
20260503214532 71 352 4.3 7.8 0.00 0.00 0.00 28 1053.7
20260503214029 72 343 4.3 7.8 0.00 0.00 0.00 28 1053.9
20260503213527 71 337 3.5 7.8 0.00 0.00 0.00 30 1053.8
20260503213023 72 354 3.5 5.2 0.00 0.00 0.00 29 1053.8
20260503212521 71 344 4.3 6.1 0.00 0.00 0.00 31 1053.8
20260503212018 71 15 6.1 7.8 0.00 0.00 0.00 31 1053.9
20260503211515 71 338 4.3 10.4 0.00 0.00 0.00 29 1053.9
20260503211011 72 344 4.3 12.2 0.00 0.00 0.00 30 1054.0
20260503210508 71 284 4.3 7.0 0.00 0.00 0.00 30 1054.1
20260503210003 71 340 6.1 9.6 0.00 0.00 0.00 32 1054.0
20260503205500 71 352 0.9 7.8 0.00 0.00 0.00 33 1054.1
20260503204956 72 320 4.3 13.0 0.00 0.00 0.00 32 1054.2
20260503204454 71 53 1.7 12.2 0.00 0.00 0.00 33 1054.2
20260503203950 72 84 3.5 6.1 0.00 0.00 0.00 31 1054.2
20260503203448 71 312 3.5 9.6 0.00 0.00 0.00 31 1054.2
20260503202944 73 53 2.6 6.1 0.00 0.00 0.00 33 1054.2
20260503202443 72 10 2.6 6.1 0.00 0.00 0.00 33 1054.2
20260503201941 72 323 6.1 9.6 0.00 0.00 0.00 31 1054.1
20260503201438 72 6 2.6 5.2 0.00 0.00 0.00 32 1054.3
20260503200935 71 324 2.6 9.6 0.00 0.00 0.00 31 1054.2
20260503200431 72 317 2.6 7.8 0.00 0.00 0.00 30 1054.4
20260503195928 72 211 0.9 11.3 0.00 0.00 0.00 30 1054.2
20260503195426 72 321 6.1 6.1 0.00 0.00 0.00 30 1054.3
20260503194922 72 343 2.6 8.7 0.00 0.00 0.00 31 1054.4
20260503194419 72 344 5.2 7.8 0.00 0.00 0.00 31 1054.4
20260503193914 72 327 7.0 9.6 0.00 0.00 0.00 32 1054.5
20260503193410 70 336 4.3 7.8 0.00 0.00 0.00 35 1054.5
20260503192906 71 6 5.2 6.1 0.00 0.00 0.00 34 1054.7
20260503192402 70 7 2.6 7.0 0.00 0.00 0.00 33 1054.8
20260503191858 71 95 1.7 5.2 0.00 0.00 0.00 31 1054.4
20260503191355 71 306 7.0 7.8 0.00 0.00 0.00 30 1054.4
20260503190852 72 357 3.5 7.8 0.00 0.00 0.00 32 1054.8
20260503190349 70 356 2.6 6.1 0.00 0.00 0.00 35 1054.4
20260503185846 69 20 5.2 12.2 0.00 0.00 0.00 38 1054.4
20260503185342 70 333 3.5 11.3 0.00 0.00 0.00 34 1054.5
20260503184842 71 257 3.5 5.2 0.00 0.00 0.00 35 1054.4
20260503184339 69 351 4.3 11.3 0.00 0.00 0.00 35 1054.8
20260503183834 70 18 4.3 11.3 0.00 0.00 0.00 36 1054.5
20260503183332 70 25 2.6 6.1 0.00 0.00 0.00 37 1054.9
20260503182829 71 317 1.7 7.8 0.00 0.00 0.00 38 1054.8
20260503182328 71 0 3.5 4.3 0.00 0.00 0.00 36 1054.8
20260503181825 71 31 0.9 7.8 0.00 0.00 0.00 38 1055.1
20260503181322 70 25 9.6 9.6 0.00 0.00 0.00 39 1054.9
20260503180818 69 342 4.3 7.0 0.00 0.00 0.00 37 1055.0
20260503180317 69 357 4.3 8.7 0.00 0.00 0.00 39 1055.0
20260503175813 69 277 1.7 7.8 0.00 0.00 0.00 39 1054.8
20260503175311 68 322 5.2 8.7 0.00 0.00 0.00 41 1054.9
20260503174806 68 319 1.7 7.8 0.00 0.00 0.00 42 1055.0
20260503174304 67 12 7.8 11.3 0.00 0.00 0.00 42 1054.9
20260503173800 67 22 6.1 15.6 0.00 0.00 0.00 41 1055.1
20260503173255 67 11 7.8 10.4 0.00 0.00 0.00 42 1054.9
20260503172753 68 336 2.6 10.4 0.00 0.00 0.00 41 1055.0
20260503172250 65 17 4.3 13.0 0.00 0.00 0.00 44 1054.9
20260503171746 66 8 9.6 12.2 0.00 0.00 0.00 42 1055.0
20260503171243 67 20 3.5 7.0 0.00 0.00 0.00 42 1055.0
20260503170740 69 306 5.2 7.8 0.00 0.00 0.00 41 1054.9
20260503170237 68 310 5.2 7.0 0.00 0.00 0.00 42 1054.9
20260503160159 65 322 6.1 7.8 0.00 0.00 0.00 44 1054.8
20260503150629 64 5 1.7 5.2 0.00 0.00 0.00 43 1054.5
20260503150125 64 126 4.3 5.2 0.00 0.00 0.00 44 1054.4
20260503131019 55 200 7.0 20.0 0.00 0.00 0.00 51 1054.9
20260503130516 55 210 3.5 5.2 0.00 0.00 0.00 51 1055.0
20260503110407 51 214 13.0 18.2 0.00 0.00 0.00 57 1054.7
20260503090257 54 197 7.0 13.9 0.00 0.00 0.00 51 1056.3
20260503081231 55 188 6.1 12.2 0.00 0.00 0.00 49 1057.8
20260503080726 55 178 4.3 9.6 0.00 0.00 0.00 50 1057.8
20260503080224 55 230 4.3 7.8 0.00 0.00 0.00 51 1057.9
20260503072700 54 213 4.3 7.8 0.00 0.00 0.00 50 1057.6
20260503072157 54 227 5.2 5.2 0.00 0.00 0.00 48 1057.6
20260503071654 54 225 5.2 6.1 0.00 0.00 0.00 48 1057.7
20260503071150 54 231 5.2 8.7 0.00 0.00 0.00 48 1057.9
20260503070647 54 193 5.2 8.7 0.00 0.00 0.00 47 1057.8
20260503070146 54 218 5.2 10.4 0.00 0.00 0.00 47 1057.9
20260503060110 54 227 2.6 7.0 0.00 0.00 0.00 47 1058.5
20260503055101 55 244 2.6 9.6 0.00 0.00 0.00 46 1058.7
20260503054557 55 215 4.3 11.3 0.00 0.00 0.00 46 1058.7
20260503054054 55 225 5.2 8.7 0.00 0.00 0.00 47 1058.9
20260503053552 54 207 4.3 7.0 0.00 0.00 0.00 48 1059.1
20260503053050 54 225 3.5 10.4 0.00 0.00 0.00 49 1059.2
20260503052547 54 212 5.2 10.4 0.00 0.00 0.00 48 1059.2
20260503052043 54 214 2.6 9.6 0.00 0.00 0.00 49 1059.2
20260503051538 55 212 5.2 11.3 0.00 0.00 0.00 49 1059.1
20260503051036 55 205 7.8 8.7 0.00 0.00 0.00 48 1059.1
20260503050531 55 211 3.5 4.3 0.00 0.00 0.00 48 1059.2
20260503050029 55 221 4.3 9.6 0.00 0.00 0.00 47 1059.2
20260503045526 55 190 1.7 6.1 0.00 0.00 0.00 48 1059.2
20260503045024 55 212 4.3 6.1 0.00 0.00 0.00 48 1059.3
20260503044520 55 221 4.3 4.3 0.00 0.00 0.00 49 1059.4
20260503044018 55 171 1.7 5.2 0.00 0.00 0.00 49 1059.5
20260503043514 55 214 2.6 3.5 0.00 0.00 0.00 50 1059.5
20260503043010 54 201 1.7 3.5 0.00 0.00 0.00 50 1059.7
20260503042507 54 202 1.7 2.6 0.00 0.00 0.00 51 1059.5
20260503042003 54 326 0.0 0.9 0.00 0.00 0.00 52 1059.6
20260503041500 54 207 0.9 1.7 0.00 0.00 0.00 52 1059.8
20260503040958 54 229 0.0 0.9 0.00 0.00 0.00 51 1059.6
20260503040455 54 3 1.7 1.7 0.00 0.00 0.00 51 1059.8
20260503035952 55 242 1.7 1.7 0.00 0.00 0.00 49 1059.9
20260503035449 55 161 0.0 2.6 0.00 0.00 0.00 49 1059.9
20260503034947 55 218 0.0 4.3 0.00 0.00 0.00 47 1060.1